Location: Pine Mountain Observatory
(43.7910°N, 120.9377°W)
Time: 22:25:21
(UTC-07:00)

Cosmos 1867 - Visible Passes

Search period start: 30 March 2015 00:00
Search period end: 09 April 2015 00:00
Orbit: 778 x 798 km, 65.0° (Epoch: 30 March)

Date Brightness Start Highest point End Pass type
(mag) Time Alt. Az. Time Alt. Az. Time Alt. Az.
30 Mar 3.6 20:39:02 10° NNW 20:44:31 74° NE 20:48:29 19° SE visible
30 Mar 5.7 22:23:59 10° WNW 22:27:36 18° WSW 22:29:12 15° SW visible
31 Mar 3.8 20:07:27 10° NNW 20:12:51 56° NE 20:18:12 10° SE visible
31 Mar 5.4 21:51:47 10° WNW 21:56:07 24° WSW 21:59:08 15° SSW visible
01 Apr 5.1 21:19:48 10° NW 21:24:38 32° WSW 21:29:10 11° S visible
02 Apr 4.6 20:47:57 10° NW 20:53:08 44° WSW 20:58:14 10° S visible
03 Apr 4.2 20:16:12 10° NW 20:21:35 59° WSW 20:26:54 10° SSE visible
04 Apr 6.3 21:31:00 10° W 21:32:51 11° WSW 21:34:22 10° WSW visible
05 Apr 6.1 20:58:02 10° WNW 21:01:25 16° WSW 21:04:34 10° SW visible
06 Apr 5.9 20:25:45 10° WNW 20:29:57 22° WSW 20:34:00 10° SSW visible
